This demonstration page uses our WeatherBlox Daily Observations layout. Learn more.

Left ArrowRight Arrow

34.16533, -84.80231

Hourly Observations for July 11, 2017

Temp ( °F °C ) Dew Point ( °F °C ) Humidity (%) Winds ( mph kmh ) Pressure ( in mb ) Visibility ( mi km ) Precip ( " mm )
12:53 am 00:53 Mostly Clear 72 22.2 72 22.2 100 100 Calm 30.04 1017 10 16 0.00 0.00
1:53 am 01:53 Clear 72 22.2 72 22.2 100 100 Calm 30.04 1017 10 16 0.00 0.00
2:53 am 02:53 Clear 70 21.1 70 21.1 100 100 Calm 30.04 1017 8 13 0.00 0.00
3:53 am 03:53 Clear 69 20.6 69 20.6 100 100 Calm 30.03 1017 7 11 0.00 0.00
4:53 am 04:53 Clear 69 20.6 69 20.6 100 100 Calm 30.03 1017 8 13 0.00 0.00
5:53 am 05:53 Clear with Mist and Fog 68 20 68 20 100 100 Calm 30.03 1017 6 10 0.00 0.00
6:53 am 06:53 Sunny 70 21.1 70 21.1 100 100 Calm 30.05 1018 8 13 0.00 0.00
7:53 am 07:53 Sunny 72 22.2 72 22.2 100 100 Calm 30.07 1018 8 13 0.00 0.00
8:53 am 08:53 Sunny 77 25 74 23.3 90 90 Calm 30.08 1019 10 16 0.00 0.00
9:53 am 09:53 Mostly Sunny 80 26.7 75 23.9 85 85 N 3 6 30.10 1019 10 16 0.00 0.00
10:53 am 10:53 Sunny 83 28.3 74 23.3 74 74 VRB 3 6 30.09 1019 10 16 0.00 0.00
11:53 am 11:53 Sunny 85 29.4 72 22.2 65 65 VRB 3 6 30.09 1019 10 16 0.00 0.00
12:53 pm 12:53 Mostly Sunny 87 30.6 73 22.8 63 63 N 6 9 30.08 1019 10 16 0.00 0.00
1:53 pm 13:53 Partly Cloudy 88 31.1 71 21.7 57 57 NNW 7 11 30.07 1018 10 16 0.00 0.00
2:34 pm 14:34 Sunny with Nearby Thunderstorms 88 31.1 71 21.7 57 57 undefined N/A 30.03 1017 10 16 0.00 0.00
2:42 pm 14:42 Partly Cloudy with Thunderstorms 82 27.8 74 23.3 77 77 S 15 24 30.06 1018 10 16 0.00 0.00
2:53 pm 14:53 Partly Cloudy with Thunderstorms 82 27.8 74 23.3 77 77 S 9 15 30.06 1018 10 16 0.00 0.00
3:06 pm 15:06 Mostly Sunny 84 28.9 74 23.3 72 72 S 8 13 30.03 1017 10 16 0.00 0.00
3:53 pm 15:53 Sunny 84 28.9 74 23.3 72 72 Calm 30.05 1018 10 16 0.00 0.00
4:53 pm 16:53 Sunny 83 28.3 76 24.4 79 79 SE 7 11 30.04 1017 10 16 0.00 0.00
5:53 pm 17:53 Sunny 86 30 74 23.3 67 67 SE 3 6 30.02 1017 10 16 0.00 0.00
6:53 pm 18:53 Sunny 86 30 74 23.3 67 67 S 3 6 30.01 1016 10 16 0.00 0.00
7:53 pm 19:53 Sunny 83 28.3 74 23.3 74 74 S 6 9 30.03 1017 10 16 0.00 0.00
8:53 pm 20:53 Sunny 79 26.1 74 23.3 85 85 S 7 11 30.04 1017 10 16 0.00 0.00
9:53 pm 21:53 Mostly Clear 78 25.6 73 22.8 85 85 S 7 11 30.06 1018 10 16 0.00 0.00
10:53 pm 22:53 Clear 75 23.9 73 22.8 94 94 Calm 30.08 1019 10 16 0.00 0.00
11:53 pm 23:53 Clear 74 23.3 73 22.8 97 97 Calm 30.10 1019 10 16 0.00 0.00

Powered by AerisWeather